This is the latest recevied weather packets stored in our database for station/object W0BJ. If no packets are shown the sender has not sent any weather packets the latest 10 day(s).
| Time | Temp. | Humidity | Pressure | Rain* | Wind** | Luminosity | Snow |
|---|---|---|---|---|---|---|---|
| 1778083521 | 14.44° C | 75% | 1019 hPa | 0 mm | - | - | - |
| 1778082921 | 13.89° C | 72% | 1019.1 hPa | 0 mm | - | - | - |
| 1778082801 | 13.33° C | 74% | 1019.1 hPa | 0 mm | - | - | - |
| 1778082322 | 13.33° C | 71% | 1019.1 hPa | 0 mm | - | - | - |
| 1778081900 | 13.33° C | 75% | 1019.1 hPa | 0 mm | - | - | - |
| 1778081722 | 13.33° C | 76% | 1019.1 hPa | 0 mm | - | - | - |
| 1778081121 | 12.78° C | 77% | 1018.8 hPa | 0 mm | - | - | - |
| 1778081001 | 12.78° C | 78% | 1018.7 hPa | 0 mm | - | - | - |
| 1778080522 | 12.22° C | 77% | 1018.5 hPa | 0 mm | - | - | - |
| 1778080100 | 12.22° C | 78% | 1018.5 hPa | 0 mm | - | - | - |
| 1778079922 | 12.78° C | 79% | 1018.4 hPa | 0 mm | - | - | - |
| 1778079322 | 12.78° C | 81% | 1018.5 hPa | 0 mm | - | - | - |
| 1778079201 | 12.78° C | 81% | 1018.4 hPa | 0 mm | - | - | - |
| 1778078721 | 12.22° C | 83% | 1018.2 hPa | 1.27 mm | - | - | - |
| 1778078301 | 11.67° C | 82% | 1018 hPa | 1.27 mm | - | - | - |
| 1778078121 | 11.67° C | 85% | 1018.1 hPa | 1.27 mm | - | - | - |
| 1778077521 | 11.11° C | 86% | 1018.3 hPa | 1.27 mm | - | - | - |
| 1778077400 | 11.11° C | 87% | 1018.3 hPa | 1.27 mm | - | - | - |
| 1778076921 | 10.56° C | 89% | 1018.2 hPa | 1.27 mm | - | - | - |
| 1778076501 | 10.56° C | 89% | 1018.3 hPa | 1.27 mm | - | - | - |
| 1778076321 | 10.56° C | 89% | 1018.4 hPa | 1.27 mm | - | - | - |
| 1778075721 | 10° C | 91% | 1018.5 hPa | 1.27 mm | - | - | - |
| 1778075602 | 10° C | 91% | 1018.4 hPa | 0 mm | - | - | - |
| 1778075311 | 10° C | 91% | 1018.4 hPa | 0 mm | - | - | - |
| 1778074866 | 10° C | 91% | 1018.4 hPa | 0 mm | - | - | - |
* Rain latest hour (hover to see other rain measurements)
** Current wind speed in m/s (hover to see current wind gust speed)